DO7GH Weather Reports


time (UTC)temp
C
wind
direction
speed
KPH
gust
KPH
rain 1hr
cm
rain 24hr
cm
rain mn
cm
humidity
%
barometer
mb
20260508182007 15 5 1.6 4.8 0.00 0.00 0.00 59 1015.8
20260508181525 16 65 1.6 4.8 0.00 0.00 0.00 59 1015.7
20260508181009 16 43 0.0 8.0 0.00 0.00 0.00 59 1015.6
20260508180510 16 333 1.6 8.0 0.00 0.00 0.00 59 1015.7
20260508180028 16 42 1.6 6.4 0.00 0.00 0.00 57 1015.6
20260508175508 16 336 1.6 8.0 0.00 0.00 0.00 57 1015.6
20260508175009 16 5 0.0 8.0 0.00 0.00 0.00 57 1015.6
20260508174529 16 17 0.0 6.4 0.00 0.00 0.00 57 1015.5
20260508174005 16 65 0.0 6.4 0.00 0.00 0.00 57 1015.5
20260508173505 16 30 0.0 6.4 0.00 0.00 0.00 56 1015.5
20260508173017 17 25 0.0 4.8 0.00 0.00 0.00 56 1015.5
20260508172511 17 80 0.0 6.4 0.00 0.00 0.00 55 1015.4
20260508172011 17 53 1.6 6.4 0.00 0.00 0.00 54 1015.4
20260508171522 17 77 0.0 9.7 0.00 0.00 0.00 55 1015.4
20260508171009 17 36 3.2 12.9 0.00 0.00 0.00 53 1015.4
20260508170508 17 56 1.6 12.9 0.00 0.00 0.00 54 1015.3
20260508170028 17 49 1.6 4.8 0.00 0.00 0.00 53 1015.4
20260508165508 17 61 0.0 6.4 0.00 0.00 0.00 54 1015.4
20260508165008 17 73 1.6 6.4 0.00 0.00 0.00 52 1015.3
20260508164518 18 43 1.6 8.0 0.00 0.00 0.00 52 1015.3
20260508164005 18 48 0.0 8.0 0.00 0.00 0.00 52 1015.2
20260508163508 18 57 4.8 8.0 0.00 0.00 0.00 51 1015.2
20260508163027 18 288 1.6 8.0 0.00 0.00 0.00 53 1015.2
20260508162508 18 70 3.2 6.4 0.00 0.00 0.00 53 1015.2
20260508162007 18 40 1.6 6.4 0.00 0.00 0.00 51 1015.2
20260508161520 18 313 1.6 8.0 0.00 0.00 0.00 51 1015.2
20260508161009 18 331 1.6 9.7 0.00 0.00 0.00 52 1015.2
20260508160508 18 68 0.0 9.7 0.00 0.00 0.00 53 1015.2
20260508160026 18 352 1.6 9.7 0.00 0.00 0.00 51 1015.2
20260508155511 18 84 1.6 8.0 0.00 0.00 0.00 53 1015.3
20260508155009 18 315 1.6 9.7 0.00 0.00 0.00 51 1015.2
20260508154519 18 13 1.6 9.7 0.00 0.00 0.00 51 1015.2
20260508154013 18 86 1.6 6.4 0.00 0.00 0.00 50 1015.2
20260508153510 18 81 0.0 6.4 0.00 0.00 0.00 50 1015.2
20260508153023 18 352 0.0 6.4 0.00 0.00 0.00 52 1015.3
20260508152513 18 55 0.0 6.4 0.00 0.00 0.00 53 1015.3
20260508152011 18 80 0.0 4.8 0.00 0.00 0.00 52 1015.4
20260508151519 18 126 0.0 4.8 0.00 0.00 0.00 53 1015.4
20260508151009 18 309 0.0 11.3 0.00 0.00 0.00 51 1015.5
20260508150509 18 53 0.0 11.3 0.00 0.00 0.00 50 1015.5
20260508150045 18 360 3.2 9.7 0.00 0.00 0.00 52 1015.5
20260508145507 18 160 3.2 8.0 0.00 0.00 0.00 52 1015.6
20260508145008 18 107 0.0 4.8 0.00 0.00 0.00 53 1015.6
20260508144522 17 202 0.0 3.2 0.00 0.00 0.00 53 1015.6
20260508144007 18 25 0.0 3.2 0.00 0.00 0.00 53 1015.7
20260508143509 18 13 0.0 3.2 0.00 0.00 0.00 51 1015.7
20260508143025 17 172 0.0 8.0 0.00 0.00 0.00 55 1015.8
20260508142509 18 86 0.0 11.3 0.00 0.00 0.00 52 1015.8
20260508142007 18 289 0.0 11.3 0.00 0.00 0.00 51 1015.7
20260508141530 19 329 1.6 11.3 0.00 0.00 0.00 52 1015.7
20260508141012 18 67 4.8 11.3 0.00 0.00 0.00 52 1015.7
20260508140509 18 15 3.2 9.7 0.00 0.00 0.00 53 1015.6
20260508140024 18 140 1.6 9.7 0.00 0.00 0.00 54 1015.7
20260508135505 17 136 1.6 9.7 0.00 0.08 0.00 57 1015.7
20260508135005 17 95 1.6 9.7 0.00 0.15 0.00 56 1015.8
20260508134504 18 139 3.2 8.0 0.00 0.15 0.00 54 1015.9
20260508134004 18 352 0.0 8.0 0.00 0.15 0.00 52 1016.0
20260508133507 19 153 0.0 8.0 0.00 0.15 0.00 50 1016.0
20260508133009 18 125 1.6 4.8 0.00 0.15 0.00 56 1016.0
20260508132503 17 161 1.6 6.4 0.00 0.15 0.00 58 1016.0
20260508132004 17 158 1.6 6.4 0.00 0.15 0.00 58 1016.0
20260508131510 17 115 0.0 4.8 0.00 0.15 0.00 58 1016.1
20260508131008 16 146 0.0 4.8 0.00 0.15 0.00 57 1016.2
20260508130504 16 62 0.0 4.8 0.00 0.15 0.00 58 1016.2
20260508130016 17 352 0.0 8.0 0.00 0.15 0.00 57 1016.2
20260508125509 17 352 0.0 12.9 0.00 0.15 0.00 58 1016.2
20260508125010 18 25 4.8 9.7 0.00 0.15 0.00 57 1016.2
20260508124524 17 169 3.2 6.4 0.00 0.15 0.00 57 1016.3
20260508124004 17 237 0.0 3.2 0.00 0.15 0.00 58 1016.3
20260508123504 16 42 0.0 6.4 0.00 0.15 0.00 60 1016.3
20260508123007 16 122 0.0 9.7 0.00 0.15 0.00 59 1016.3
20260508122505 17 49 3.2 9.7 0.00 0.15 0.00 58 1016.2
20260508122006 17 45 1.6 8.0 0.00 0.15 0.00 60 1016.2
20260508121512 17 176 0.0 8.0 0.00 0.15 0.00 58 1016.2
20260508121004 17 32 3.2 9.7 0.00 0.15 0.00 62 1016.2
20260508120505 18 80 1.6 12.9 0.00 0.15 0.00 63 1016.3
20260508120020 17 37 3.2 12.9 0.00 0.15 0.00 60 1016.3
20260508115509 17 74 0.0 6.4 0.00 0.15 0.00 55 1016.3
20260508115006 17 109 0.0 6.4 0.00 0.15 0.00 61 1016.3
20260508114523 16 360 0.0 6.4 0.00 0.15 0.00 62 1016.4
20260508114009 17 144 0.0 6.4 0.00 0.15 0.00 62 1016.4
20260508113505 16 67 0.0 12.9 0.00 0.15 0.00 68 1016.5
20260508113005 16 159 3.2 12.9 0.00 0.15 0.00 66 1016.6
20260508112505 16 107 3.2 12.9 0.00 0.15 0.00 65 1016.6
20260508112004 16 107 3.2 14.5 0.00 0.15 0.00 66 1016.7
20260508111510 16 20 4.8 14.5 0.00 0.15 0.00 67 1016.7
20260508111006 16 77 1.6 11.3 0.00 0.15 0.00 69 1016.7
20260508110506 16 127 1.6 11.3 0.00 0.15 0.00 68 1016.7
20260508110017 16 169 1.6 11.3 0.00 0.15 0.00 69 1016.8
20260508105505 15 109 1.6 9.7 0.00 0.15 0.00 68 1016.9
20260508105006 15 352 0.0 11.3 0.00 0.15 0.00 71 1016.9
20260508104523 15 98 4.8 11.3 0.00 0.15 0.00 70 1017.0
20260508104004 15 69 1.6 8.0 0.00 0.15 0.00 69 1017.1
20260508103505 14 173 1.6 8.0 0.00 0.15 0.00 72 1017.0
20260508103010 14 169 1.6 6.4 0.00 0.15 0.00 74 1017.1
20260508102505 14 83 1.6 6.4 0.00 0.15 0.00 76 1017.1
20260508102004 14 81 3.2 6.4 0.00 0.15 0.00 71 1017.1
20260508101508 14 147 0.0 6.4 0.00 0.15 0.00 75 1017.1
20260508101004 13 107 1.6 8.0 0.00 0.15 0.00 78 1017.1
20260508100505 13 158 1.6 8.0 0.00 0.15 0.00 75 1017.1
20260508100022 13 32 0.0 6.4 0.00 0.15 0.00 78 1017.1
20260508095507 12 112 1.6 6.4 0.00 0.15 0.00 79 1017.1
20260508095008 12 118 1.6 6.4 0.00 0.15 0.00 81 1017.2
20260508094521 12 86 3.2 4.8 0.00 0.15 0.00 81 1017.3
20260508094007 11 122 1.6 6.4 0.00 0.15 0.00 84 1017.3
20260508093506 11 90 1.6 6.4 0.00 0.15 0.00 84 1017.4
20260508093018 11 33 1.6 6.4 0.00 0.15 0.00 84 1017.4
20260508092506 11 5 0.0 8.0 0.00 0.15 0.00 84 1017.3
20260508092006 11 134 1.6 8.0 0.00 0.15 0.00 84 1017.4
20260508091518 10 33 1.6 6.4 0.00 0.15 0.00 84 1017.4
20260508091009 10 330 1.6 6.4 0.00 0.15 0.00 86 1017.4
20260508090505 10 342 0.0 6.4 0.00 0.15 0.00 86 1017.5
20260508090011 10 118 1.6 6.4 0.00 0.15 0.00 88 1017.5
20260508085503 10 157 1.6 6.4 0.00 0.15 0.00 88 1017.5
20260508085005 9 161 0.0 6.4 0.00 0.15 0.00 89 1017.5
20260508084514 9 122 1.6 4.8 0.00 0.15 0.00 88 1017.5
20260508084004 9 141 0.0 4.8 0.00 0.15 0.00 88 1017.5
20260508083505 10 5 0.0 4.8 0.00 0.15 0.00 89 1017.5
20260508083016 9 46 0.0 4.8 0.00 0.15 0.00 88 1017.4
20260508082506 9 69 1.6 4.8 0.00 0.15 0.00 89 1017.4
20260508082009 9 125 1.6 3.2 0.00 0.15 0.00 90 1017.4
20260508081526 9 146 0.0 4.8 0.00 0.15 0.00 91 1017.3
20260508081008 9 71 0.0 8.0 0.00 0.15 0.00 90 1017.3
20260508080507 9 92 0.0 8.0 0.00 0.15 0.00 91 1017.3
20260508080040 9 38 0.0 4.8 0.00 0.15 0.00 92 1017.3
20260508075503 9 74 0.0 4.8 0.00 0.15 0.00 92 1017.2
20260508075008 9 82 1.6 4.8 0.00 0.15 0.00 93 1017.1
20260508074509 8 101 0.0 4.8 0.00 0.15 0.00 93 1017.1
20260508074004 8 128 1.6 6.4 0.00 0.15 0.00 93 1017.1
20260508073504 8 108 3.2 6.4 0.00 0.15 0.00 93 1017.2
20260508073015 8 116 1.6 6.4 0.00 0.15 0.00 94 1017.3
20260508072507 8 99 0.0 3.2 0.00 0.15 0.00 94 1017.2
20260508072008 8 67 0.0 4.8 0.00 0.15 0.00 94 1017.1
20260508071524 8 54 0.0 4.8 0.00 0.15 0.00 95 1017.1
20260508071008 8 66 0.0 3.2 0.00 0.15 0.00 95 1017.0
20260508070513 8 5 0.0 3.2 0.00 0.15 0.00 95 1017.0
20260508070025 8 59 0.0 3.2 0.00 0.15 0.00 95 1017.0
20260508065509 8 31 0.0 3.2 0.00 0.15 0.00 95 1017.0
20260508065010 8 38 0.0 3.2 0.00 0.15 0.00 95 1017.0
20260508064529 8 42 0.0 3.2 0.00 0.15 0.00 95 1017.0
20260508064004 8 59 0.0 3.2 0.00 0.15 0.00 95 1017.0
20260508063507 8 59 0.0 3.2 0.00 0.15 0.00 95 1017.0
20260508063018 8 57 0.0 3.2 0.00 0.15 0.00 95 1017.0
20260508062508 8 36 0.0 3.2 0.00 0.15 0.00 95 1017.0
20260508062009 8 77 0.0 1.6 0.00 0.15 0.00 95 1016.8
20260508061523 8 107 0.0 0.0 0.00 0.15 0.00 95 1016.7
20260508061008 8 109 0.0 0.0 0.00 0.15 0.00 95 1016.6
20260508060503 8 109 0.0 0.0 0.00 0.15 0.00 95 1016.6
20260508060009 8 109 0.0 3.2 0.00 0.15 0.00 95 1016.5
20260508055503 8 115 0.0 3.2 0.00 0.15 0.00 95 1016.4
20260508055004 8 170 0.0 3.2 0.00 0.15 0.00 95 1016.4
20260508054516 7 228 0.0 3.2 0.00 0.15 0.00 95 1016.3
20260508054004 7 219 0.0 3.2 0.00 0.15 0.00 95 1016.2
20260508053503 7 125 0.0 3.2 0.00 0.15 0.00 95 1016.2
20260508053019 7 116 0.0 3.2 0.00 0.15 0.00 95 1016.2
20260508052507 7 143 0.0 3.2 0.00 0.15 0.00 95 1016.2
20260508052010 7 137 0.0 0.0 0.00 0.15 0.00 95 1016.2
20260508051522 7 80 0.0 3.2 0.00 0.15 0.00 95 1016.2
20260508051006 7 91 0.0 3.2 0.00 0.15 0.00 95 1016.2
20260508050503 7 74 0.0 3.2 0.00 0.15 0.00 95 1016.2
20260508050010 7 119 0.0 3.2 0.00 0.15 0.00 95 1016.2
20260508045503 7 119 0.0 3.2 0.00 0.15 0.00 94 1016.2
20260508045003 7 150 0.0 3.2 0.00 0.15 0.00 95 1016.1
20260508044509 7 126 0.0 3.2 0.00 0.15 0.00 94 1016.1
20260508044004 7 161 0.0 3.2 0.00 0.15 0.00 94 1016.1
20260508043504 7 117 0.0 3.2 0.00 0.15 0.00 94 1016.0
20260508043014 7 151 0.0 3.2 0.00 0.15 0.00 94 1015.9
20260508042507 7 167 0.0 0.0 0.00 0.15 0.00 94 1015.9
20260508042004 7 167 0.0 4.8 0.00 0.15 0.00 94 1015.9
20260508041520 7 167 0.0 4.8 0.00 0.15 0.00 94 1016.0
20260508041004 7 323 0.0 0.0 0.00 0.15 0.00 94 1015.8
20260508040504 7 323 0.0 0.0 0.00 0.15 0.00 94 1015.8
20260508040033 7 349 0.0 0.0 0.00 0.15 0.00 94 1015.8
20260508035503 6 348 0.0 0.0 0.00 0.15 0.00 94 1015.8
20260508035008 6 348 0.0 0.0 0.00 0.15 0.00 94 1015.8
20260508034524 7 331 0.0 0.0 0.00 0.15 0.00 94 1015.8
20260508034007 7 320 0.0 0.0 0.00 0.15 0.00 94 1015.8
20260508033508 7 319 0.0 0.0 0.00 0.15 0.00 94 1015.7
20260508033008 7 320 0.0 0.0 0.00 0.15 0.00 94 1015.7
20260508032505 7 316 0.0 0.0 0.00 0.15 0.00 94 1015.7
20260508032005 7 309 0.0 0.0 0.00 0.15 0.00 94 1015.7
20260508031519 7 309 0.0 0.0 0.00 0.15 0.00 94 1015.7
20260508031005 7 309 0.0 0.0 0.00 0.15 0.00 94 1015.7
20260508030504 7 309 0.0 0.0 0.00 0.15 0.00 94 1015.7
20260508030014 7 309 0.0 0.0 0.00 0.15 0.00 94 1015.7
20260508025504 7 327 0.0 0.0 0.00 0.15 0.00 94 1015.7
20260508025007 7 327 0.0 1.6 0.00 0.15 0.00 94 1015.7
20260508024525 7 339 0.0 1.6 0.00 0.15 0.00 94 1015.7
20260508024011 8 27 0.0 0.0 0.00 0.15 0.00 94 1015.7
20260508023509 8 27 0.0 1.6 0.00 0.15 0.00 93 1015.7
20260508023026 8 30 0.0 1.6 0.00 0.15 0.00 94 1015.7
20260508022509 8 184 0.0 0.0 0.00 0.15 0.00 94 1015.7
20260508022011 8 184 0.0 0.0 0.00 0.15 0.00 93 1015.8
20260508021513 8 184 0.0 0.0 0.00 0.15 0.00 93 1015.8
20260508021004 8 184 0.0 0.0 0.00 0.15 0.00 93 1015.9
20260508020504 8 184 0.0 0.0 0.00 0.15 0.00 93 1015.9
20260508020016 8 188 0.0 0.0 0.00 0.15 0.00 93 1015.9
20260508015504 8 173 0.0 0.0 0.00 0.15 0.00 93 1015.9
20260508015006 8 117 0.0 0.0 0.00 0.15 0.00 93 1015.9
20260508014524 8 85 0.0 0.0 0.00 0.15 0.00 93 1015.9
20260508014007 8 85 0.0 0.0 0.00 0.15 0.00 93 1015.9
20260508013509 7 70 0.0 0.0 0.00 0.15 0.00 92 1015.9
20260508013026 7 70 0.0 0.0 0.00 0.15 0.00 92 1015.9
20260508012510 7 66 0.0 0.0 0.00 0.15 0.00 92 1015.9
20260508012008 7 66 0.0 0.0 0.00 0.15 0.00 91 1015.8
20260508011527 7 66 0.0 0.0 0.00 0.15 0.00 91 1015.8
20260508011007 7 66 0.0 0.0 0.00 0.15 0.00 92 1015.9
20260508010505 7 66 0.0 0.0 0.00 0.15 0.00 91 1016.0
20260508010016 8 66 0.0 0.0 0.00 0.15 0.00 91 1016.0
20260508005505 8 66 0.0 0.0 0.00 0.15 0.00 92 1016.0
20260508005006 8 66 0.0 0.0 0.00 0.15 0.00 91 1016.1
20260508004521 8 66 0.0 0.0 0.00 0.15 0.00 91 1016.1
20260508004013 8 66 0.0 0.0 0.00 0.15 0.00 91 1016.1
20260508003514 8 66 0.0 0.0 0.00 0.15 0.00 91 1016.2
20260508003026 8 66 0.0 0.0 0.00 0.15 0.00 91 1016.2
20260508002509 8 66 0.0 0.0 0.00 0.15 0.00 91 1016.2
20260508002010 8 66 0.0 0.0 0.00 0.15 0.00 91 1016.2
20260508001530 8 66 0.0 0.0 0.00 0.15 0.00 90 1016.3
20260508001005 8 66 0.0 0.0 0.00 0.15 0.00 90 1016.3
20260508000510 8 66 0.0 0.0 0.00 0.15 0.00 90 1016.2
20260508000022 9 56 0.0 0.0 0.00 0.15 0.00 90 1016.3
20260507235507 9 53 0.0 0.0 0.00 0.15 0.00 89 1016.3
20260507235006 9 53 0.0 0.0 0.00 0.15 0.00 89 1016.4
20260507234528 9 53 0.0 0.0 0.00 0.15 0.00 89 1016.5
20260507234006 9 53 0.0 0.0 0.00 0.15 0.00 89 1016.5
20260507233507 9 53 0.0 0.0 0.00 0.15 0.00 88 1016.5
20260507233024 10 53 0.0 0.0 0.00 0.15 0.00 88 1016.5
20260507232508 10 53 0.0 0.0 0.00 0.15 0.00 88 1016.6
20260507232011 10 53 0.0 0.0 0.00 0.15 0.00 87 1016.6
20260507231526 10 53 0.0 0.0 0.00 0.15 0.00 87 1016.6
20260507231008 10 53 0.0 0.0 0.00 0.15 0.00 87 1016.8
20260507230506 10 53 0.0 0.0 0.00 0.15 0.00 87 1016.9
20260507230024 10 53 0.0 0.0 0.00 0.15 0.00 87 1016.9
20260507225509 10 53 0.0 0.0 0.00 0.15 0.00 87 1017.0
20260507225009 10 53 0.0 0.0 0.00 0.15 0.00 88 1017.0
20260507224528 10 53 0.0 0.0 0.00 0.15 0.00 88 1017.0
20260507224012 10 53 0.0 0.0 0.00 0.15 0.00 87 1017.0
20260507223506 10 53 0.0 0.0 0.00 0.15 0.00 87 1017.0
20260507223020 10 53 0.0 0.0 0.00 0.15 0.00 87 1017.0
20260507222506 10 53 0.0 0.0 0.00 0.15 0.00 87 1016.9
20260507222007 10 49 0.0 0.0 0.00 0.15 0.00 88 1017.0
20260507221529 10 49 0.0 0.0 0.00 0.15 0.00 88 1017.0
20260507221008 10 49 0.0 0.0 0.00 0.15 0.00 88 1017.0
20260507220508 10 49 0.0 0.0 0.00 0.15 0.00 89 1016.9
20260507220034 10 49 0.0 0.0 0.00 0.15 0.00 88 1016.9
20260507215510 10 53 0.0 0.0 0.00 0.15 0.15 89 1016.8
20260507215008 10 104 0.0 0.0 0.00 0.15 0.15 88 1016.8
20260507214529 10 104 0.0 0.0 0.00 0.15 0.15 88 1016.8
20260507214009 10 104 0.0 0.0 0.00 0.15 0.15 87 1016.8
20260507213504 10 104 0.0 0.0 0.00 0.15 0.15 87 1016.7
20260507213022 10 104 0.0 0.0 0.00 0.15 0.15 87 1016.8
20260507212504 10 104 0.0 0.0 0.00 0.15 0.15 86 1016.7
20260507212008 10 104 0.0 0.0 0.00 0.15 0.15 86 1016.7
20260507211521 10 104 0.0 0.0 0.00 0.15 0.15 86 1016.7
20260507211004 10 104 0.0 0.0 0.00 0.15 0.15 85 1016.8
20260507210503 10 104 0.0 0.0 0.00 0.15 0.15 84 1016.7
20260507210007 10 104 0.0 0.0 0.00 0.15 0.15 83 1016.7
20260507205503 10 65 0.0 0.0 0.00 0.15 0.15 81 1016.7
20260507205005 10 65 0.0 0.0 0.00 0.15 0.15 81 1016.7
20260507204510 10 65 0.0 0.0 0.00 0.15 0.15 82 1016.7
20260507204004 10 80 0.0 0.0 0.00 0.15 0.15 83 1016.6
20260507203505 10 80 0.0 0.0 0.00 0.15 0.15 83 1016.6
20260507203016 10 80 0.0 0.0 0.00 0.15 0.15 82 1016.6
20260507202503 11 80 0.0 0.0 0.00 0.15 0.15 82 1016.6
20260507202008 11 80 0.0 0.0 0.00 0.15 0.15 82 1016.4
20260507201522 11 80 0.0 0.0 0.00 0.15 0.15 82 1016.4
20260507201008 11 80 0.0 1.6 0.00 0.15 0.15 83 1016.4
20260507200507 11 80 0.0 1.6 0.00 0.15 0.15 83 1016.4
20260507200009 11 56 0.0 0.0 0.00 0.15 0.15 83 1016.3
20260507195503 11 51 0.0 3.2 0.00 0.15 0.15 83 1016.3
20260507195006 11 51 0.0 3.2 0.00 0.15 0.15 83 1016.4
20260507194525 11 14 0.0 1.6 0.00 0.15 0.15 83 1016.3
20260507194004 11 338 0.0 0.0 0.00 0.15 0.15 84 1016.3
20260507193508 11 347 0.0 0.0 0.00 0.15 0.15 84 1016.2
20260507193015 11 347 0.0 0.0 0.00 0.15 0.15 84 1016.2
20260507192506 11 347 0.0 0.0 0.00 0.15 0.15 84 1016.1
20260507192005 11 347 0.0 0.0 0.00 0.15 0.15 84 1016.1
20260507191519 11 347 0.0 3.2 0.00 0.15 0.15 84 1016.0
20260507191009 11 342 0.0 3.2 0.00 0.15 0.15 84 1016.0
20260507190505 11 265 0.0 3.2 0.00 0.15 0.15 83 1016.0
20260507190012 11 222 0.0 0.0 0.00 0.15 0.15 82 1015.9
20260507185506 11 138 0.0 3.2 0.00 0.15 0.15 82 1015.7
20260507185008 11 138 0.0 4.8 0.00 0.15 0.15 82 1015.7
20260507184511 11 128 0.0 4.8 0.00 0.15 0.15 81 1015.7
20260507184004 11 103 0.0 4.8 0.00 0.15 0.15 81 1015.6
20260507183503 11 140 0.0 4.8 0.00 0.15 0.15 80 1015.5
20260507183014 11 139 0.0 4.8 0.00 0.15 0.15 79 1015.5
20260507182505 11 135 0.0 4.8 0.00 0.15 0.15 78 1015.5